User: anonymous   Login
Location: *
(51.5000°N, 0.1100°W)
Time: 21:21:11
(UTC+00:00)
Language:

Cosmos 841 Rocket - Orbit

View from above orbital plane
View from above orbital plane
View from above satellite
View from above satellite

Ground track
Ground track

The orbit data is extracted from the following two-line orbital elements,

1 09023U 76069B   24205.39352244  .00000861  00000-0  27859-3 0  9996
2 09023  74.0444 349.1371 0017977 235.5456 124.4002 14.40454228517749
Epoch (UTC): 23 July 2024 09:26:40
Eccentricity: 0.0017977
inclination: 74.0444°
perigee height: 744 km
apogee height: 770 km
right ascension of ascending node: 349.1371°
argument of perigee: 235.5456°
revolutions per day: 14.40454228
mean anomaly at epoch: 124.4002°
orbit number at epoch: 51774

The dashed part of the orbit path shows where the satellite is in the earth's shadow,  

DLR